[[{"header":{"parameterUnit":"m.s-1","parameterCategory":1,"la1":30.2991,"la2":30.254,"lo1":-89.0895,"lo2":-89.0444,"dy":0.0017,"dx":0.0017,"nx":28,"ny":28,"refTime":"2024-06-11T21:00:00:Z","depth":0,"parameterNumber":2,"parameterNumberName":"U-component_of_WINDS"},"data":[0,0,0,0,0,0,0,0,0,0,0,0,0,0,0,0,0,0,0,0,0,0,0,0,0,0,0,0,0,0,0,0,0,0,0,0,0,0,0,0,0,0,0,0,0,0,0,0,0,0,0,0,0,0,0,0,0,0,-4.0515,-4.0515,0,-4.0509,-4.0509,-4.0509,-4.0435,-4.0433,-4.0431,-4.0429,-4.0422,-4.0424,-4.0425,0,0,0,0,0,0,0,0,0,0,0,0,0,-4.0464,-4.0465,-4.0515,-4.0515,-4.0515,-4.0509,-4.0509,-4.0509,-4.0435,-4.0433,-4.0431,-4.0429,-4.0422,-4.0424,-4.0426,0,0,0,0,0,0,0,0,0,0,0,0,0,-4.0475,-4.0466,-4.0515,-4.0478,-4.0474,-4.0509,-4.0509,-4.0508,-4.0436,-4.0433,-4.043,-4.0427,-4.0421,-4.0424,-4.0426,-4.0496,0,0,-4.0433,-4.0434,0,0,0,0,0,0,0,0,-4.0474,-4.0477,-4.0483,-4.048,-4.0477,-4.047,-4.0488,-4.0504,-4.0436,-4.045,-4.0429,-4.0426,-4.044,-4.0441,-4.0446,-4.0495,-4.0495,-4.0433,-4.0435,-4.0436,-4.0436,0,0,0,0,0,0,0,-4.0474,-4.0477,-4.0513,-4.0483,-4.0479,-4.0461,-4.046,-4.0491,-4.0461,-4.0449,-4.0443,-4.0444,-4.0438,-4.0444,-4.0445,-4.0495,-4.0433,-4.0435,-4.0437,-4.0437,-4.0603,-4.0605,0,0,0,0,0,0,-4.0478,-4.0476,-4.0513,-4.0512,-4.0469,-4.0464,-4.0463,-4.0475,-4.046,-4.0456,-4.0446,-4.044,-4.0441,-4.0443,-4.0445,-4.0526,-4.0435,-4.0438,-4.0439,-4.06,-4.0603,-4.0607,0,0,0,0,0,0,-4.0477,-4.0482,-4.0513,-4.0493,-4.0496,-4.0468,-4.0482,-4.0476,-4.0482,-4.0458,-4.0453,-4.0458,-4.0439,-4.0441,-4.0484,-4.0525,-4.0439,-4.0441,-4.0596,-4.0601,-4.0605,-4.069,0,0,0,0,0,0,-4.0476,-4.0482,-4.0508,-4.0494,-4.0497,-4.0553,-4.0485,-4.0478,-4.0486,-4.0478,-4.0468,-4.0463,-4.0437,-4.0481,-4.0486,-4.0527,-4.0443,-4.0592,-4.0598,-4.0603,-4.0683,-4.0697,-4.0708,0,0,0,0,0,-4.0475,-4.0532,-4.051,-4.0515,-4.0529,-4.0555,-4.0557,-4.0526,-4.049,-4.0516,-4.0501,-4.0463,-4.052,-4.0486,-4.0491,-4.0533,-4.059,-4.0597,-4.0603,-4.0678,-4.0694,-4.0708,0,0,0,0,0,0,-4.0552,-4.053,-4.0505,-4.056,-4.056,-4.0543,-4.0575,-4.0544,-4.0554,-4.0547,-4.0507,-4.0506,-4.0554,-4.0548,-4.051,-4.06,-4.0548,-4.0556,-4.0603,-4.0618,-4.0631,-4.0632,-4.0445,0,0,0,0,0,-4.0575,-4.0598,-4.0578,-4.0628,-4.0629,-4.0602,-4.0612,-4.0589,-4.0587,-4.0587,-4.0575,-4.0575,-4.0592,-4.0605,-4.062,-4.0682,-4.0679,-4.0713,-4.0726,-4.0736,-4.0744,-4.0777,-4.0793,-4.0629,-4.0629,-4.0629,0,0,-4.0624,-4.0614,-4.0631,-4.0643,-4.0641,-4.0666,-4.0603,-4.0631,-4.065,-4.0591,-4.0631,-4.0622,-4.062,-4.0673,-4.0695,-4.0669,-4.0789,-4.0745,-4.0753,-4.0755,-4.0786,-4.0801,-4.0815,-4.0633,-4.0632,-4.0632,0,0,-4.0725,-4.072,-4.0762,-4.0761,-4.0758,-4.074,-4.075,-4.0738,-4.073,-4.0769,-4.0726,-4.0747,-4.0778,-4.0778,-4.0782,-4.0885,-4.0851,-4.0891,-4.0957,-4.099,-4.1003,-4.1014,-4.1051,-4.1065,-4.0899,-4.0899,-4.0899,0,-4.0786,-4.0822,-4.0788,-4.082,-4.0827,-4.0775,-4.0817,-4.0818,-4.082,-4.0826,-4.0796,-4.0834,-4.0829,-4.0882,-4.0907,-4.0912,-4.0923,-4.0892,-4.1003,-4.1014,-4.1024,-4.106,-4.1074,-4.0904,-4.0903,-4.0903,-4.0902,0,-4.0897,-4.0923,-4.0957,-4.0961,-4.0971,-4.1009,-4.098,-4.0995,-4.0971,-4.0956,-4.0997,-4.0989,-4.1001,-4.1012,-4.0988,-4.1062,-4.1046,-4.101,-4.0957,-4.1046,-4.1078,-4.1091,-4.0911,-4.0909,-4.0908,-4.0906,0,0,-4.1047,-4.1032,-4.1045,-4.1047,-4.104,-4.1059,-4.1094,-4.1107,-4.1121,-4.1124,-4.1153,-4.1181,-4.1149,-4.1154,-4.1129,-4.1158,-4.1241,-4.1119,-4.1118,-4.1143,-4.1323,-4.1351,-4.1367,-4.1219,-4.1221,-4.1223,-4.1324,0,-4.1145,-4.1204,-4.1175,-4.1238,-4.1262,-4.1214,-4.1244,-4.1244,-4.1231,-4.1249,-4.1235,-4.1256,-4.121,-4.1213,-4.124,-4.1226,-4.1277,-4.1218,-4.1246,-4.1247,-4.1249,-4.1384,-4.1413,-4.1508,-4.1336,-4.1339,-4.134,0,-4.1268,-4.1277,-4.1343,-4.1333,-4.1342,-4.137,-4.138,-4.1398,-4.1396,-4.1385,-4.1391,-4.136,-4.1394,-4.1341,-4.1388,-4.1349,-4.1358,-4.1353,-4.1356,-4.1358,-4.13,-4.139,-4.1538,-4.1553,-4.136,-4.1358,-4.1357,0,-4.1372,-4.1401,-4.1444,-4.1447,-4.1436,-4.1457,-4.1453,-4.1449,-4.1459,-4.1468,-4.1474,-4.1486,-4.1493,-4.1504,-4.1477,-4.1441,-4.1528,-4.1473,-4.152,-4.1521,-4.1541,-4.154,-4.1693,-4.1546,-4.1546,-4.1546,-4.1546,0,-4.1485,-4.1528,-4.1491,-4.1517,-4.1564,-4.1529,-4.1576,-4.1567,-4.1564,-4.1588,-4.1547,-4.1571,-4.1534,-4.1554,-4.1534,-4.1576,-4.1579,-4.1571,-4.1566,-4.1576,-4.1577,-4.1582,-4.1575,-4.155,-4.1549,-4.1548,-4.1547,0,-4.1609,-4.1586,-4.163,-4.1617,-4.1614,-4.1649,-4.1637,-4.1662,-4.1646,-4.1678,-4.1683,-4.1659,-4.168,-4.1655,-4.1674,-4.1661,-4.1719,-4.1702,-4.1719,-4.1715,-4.1764,-4.176,-4.1926,-4.1947,-4.1786,-4.1788,-4.1789,0,-4.1684,-4.1715,-4.1705,-4.1719,-4.1718,-4.174,-4.175,-4.1718,-4.1731,-4.1732,-4.1757,-4.1775,-4.1788,-4.1825,-4.1809,-4.1824,-4.1808,-4.1866,-4.181,-4.182,-4.181,-4.1809,-4.1813,-4.1877,-4.1879,-4.1881,-4.1882,0,-4.1818,-4.1806,-4.1822,-4.1835,-4.1849,-4.1857,-4.1863,-4.1876,-4.1843,-4.1859,-4.1881,-4.1891,-4.1911,-4.193,-4.1941,-4.1937,-4.1905,-4.1899,-4.1911,-4.1922,-4.1931,-4.1928,-4.1751,-4.1896,-4.1894,-4.1893,-4.1893,-4.1892,-4.192,-4.1947,-4.1944,-4.1964,-4.1965,-4.1971,-4.1994,-4.1982,-4.1999,-4.2014,-4.1993,-4.2021,-4.202,-4.2031,-4.2031,-4.2052,-4.2028,-4.2045,-4.2049,-4.2054,-4.2062,-4.1927,-4.2054,-4.2053,-4.2053,-4.2053,-4.2052,0,-4.2054,-4.205,-4.2069,-4.2078,-4.2094,-4.2062,-4.2067,-4.2082,-4.2107,-4.2109,-4.2123,-4.2148,-4.2167,-4.2153,-4.2168,-4.2188,-4.2174,-4.2194,-4.2192,-4.2192,-4.2083,-4.2071,-4.2205,-4.2205,-4.2205,-4.2205,-4.2205,-4.2205,-4.2125,-4.2168,-4.2156,-4.2199,-4.2194,-4.2222,-4.2227,-4.2233,-4.2234,-4.2265,-4.228,-4.2271,-4.2267,-4.2282,-4.2297,-4.2293,-4.2301,-4.2326,-4.2317,-4.2215,-4.22,-4.2185,-4.2174,-4.2328,-4.2328,-4.2424,-4.2425,-4.2426]},{"header":{"parameterUnit":"m.s-1","parameterCategory":1,"la1":30.2991,"la2":30.254,"lo1":-89.0895,"lo2":-89.0444,"dy":0.0017,"dx":0.0017,"nx":28,"ny":28,"refTime":"2024-06-11T21:00:00:Z","depth":0,"parameterNumber":3,"parameterNumberName":"V-component_of_WINDS"},"data":[0,0,0,0,0,0,0,0,0,0,0,0,0,0,0,0,0,0,0,0,0,0,0,0,0,0,0,0,0,0,0,0,0,0,0,0,0,0,0,0,0,0,0,0,0,0,0,0,0,0,0,0,0,0,0,0,0,0,-2.3152,-2.3152,0,-2.3158,-2.3158,-2.3158,-2.3139,-2.3139,-2.3138,-2.3138,-2.3143,-2.3144,-2.3144,0,0,0,0,0,0,0,0,0,0,0,0,0,-2.3123,-2.3124,-2.3152,-2.3152,-2.3152,-2.3158,-2.3158,-2.3158,-2.3139,-2.3139,-2.3138,-2.3137,-2.3143,-2.3144,-2.3145,0,0,0,0,0,0,0,0,0,0,0,0,0,-2.3133,-2.3124,-2.3152,-2.3143,-2.3143,-2.3158,-2.3158,-2.3158,-2.3139,-2.3139,-2.3138,-2.3137,-2.3143,-2.3144,-2.3145,-2.3168,0,0,-2.3148,-2.3148,0,0,0,0,0,0,0,0,-2.3132,-2.3134,-2.3145,-2.3144,-2.3143,-2.3147,-2.315,-2.3161,-2.314,-2.3141,-2.3137,-2.3137,-2.3145,-2.3146,-2.3149,-2.3168,-2.3168,-2.3148,-2.3148,-2.3149,-2.3149,0,0,0,0,0,0,0,-2.3132,-2.3134,-2.3154,-2.3145,-2.3144,-2.3139,-2.3139,-2.3152,-2.3148,-2.314,-2.3139,-2.314,-2.3144,-2.3148,-2.3149,-2.3168,-2.3148,-2.3149,-2.3149,-2.315,-2.3206,-2.3207,0,0,0,0,0,0,-2.3132,-2.3133,-2.3154,-2.3154,-2.3136,-2.314,-2.3141,-2.3147,-2.3147,-2.3147,-2.3141,-2.3139,-2.3146,-2.3148,-2.3149,-2.3176,-2.3149,-2.315,-2.315,-2.3206,-2.3207,-2.3208,0,0,0,0,0,0,-2.3132,-2.3134,-2.3154,-2.3143,-2.3145,-2.3141,-2.3148,-2.3147,-2.315,-2.3148,-2.3147,-2.3145,-2.3146,-2.3147,-2.3163,-2.3176,-2.315,-2.3151,-2.3205,-2.3206,-2.3207,-2.323,0,0,0,0,0,0,-2.3131,-2.3134,-2.3143,-2.3144,-2.3146,-2.3168,-2.3149,-2.3148,-2.3152,-2.315,-2.3151,-2.3151,-2.3145,-2.3162,-2.3164,-2.3177,-2.3152,-2.3203,-2.3205,-2.3207,-2.3228,-2.3232,-2.3235,0,0,0,0,0,-2.313,-2.315,-2.3144,-2.3147,-2.3158,-2.3169,-2.317,-2.3164,-2.3153,-2.3162,-2.316,-2.3151,-2.3174,-2.3164,-2.3166,-2.3179,-2.3203,-2.3205,-2.3207,-2.3227,-2.3231,-2.3235,0,0,0,0,0,0,-2.3151,-2.315,-2.3143,-2.3164,-2.3167,-2.3166,-2.3177,-2.3169,-2.3175,-2.3173,-2.3164,-2.3165,-2.3182,-2.3182,-2.3171,-2.3201,-2.3186,-2.3189,-2.3201,-2.3205,-2.3209,-2.3208,-2.3153,0,0,0,0,0,-2.3158,-2.3168,-2.3166,-2.3184,-2.3186,-2.3181,-2.3186,-2.3181,-2.3183,-2.3185,-2.3184,-2.3187,-2.3194,-2.32,-2.3207,-2.3228,-2.3228,-2.3238,-2.3242,-2.3245,-2.3247,-2.3258,-2.3262,-2.3214,-2.3214,-2.3214,0,0,-2.3173,-2.3173,-2.318,-2.3188,-2.319,-2.32,-2.3182,-2.3194,-2.3201,-2.3186,-2.3201,-2.32,-2.3203,-2.3221,-2.3229,-2.3222,-2.326,-2.3247,-2.325,-2.325,-2.326,-2.3265,-2.3269,-2.3216,-2.3215,-2.3215,0,0,-2.3204,-2.3206,-2.3221,-2.3223,-2.3225,-2.3222,-2.3226,-2.3226,-2.3225,-2.324,-2.3228,-2.3237,-2.325,-2.3253,-2.3255,-2.3287,-2.3278,-2.3289,-2.3308,-2.3319,-2.3322,-2.3326,-2.3337,-2.3341,-2.3292,-2.3292,-2.3292,0,-2.3222,-2.3237,-2.323,-2.3242,-2.3245,-2.3232,-2.3247,-2.3249,-2.3254,-2.3257,-2.3248,-2.3265,-2.3265,-2.3284,-2.3292,-2.3294,-2.3298,-2.3289,-2.3322,-2.3326,-2.3329,-2.3339,-2.3343,-2.3293,-2.3293,-2.3293,-2.3293,0,-2.3259,-2.3269,-2.3281,-2.3285,-2.3291,-2.3304,-2.3298,-2.3304,-2.3298,-2.3295,-2.331,-2.331,-2.3317,-2.3321,-2.3315,-2.3338,-2.3334,-2.3324,-2.3309,-2.3335,-2.3344,-2.3348,-2.3295,-2.3295,-2.3294,-2.3294,0,0,-2.3305,-2.3304,-2.3309,-2.331,-2.3312,-2.332,-2.3332,-2.3338,-2.3344,-2.3347,-2.3357,-2.3369,-2.3359,-2.3363,-2.3357,-2.3366,-2.3391,-2.3355,-2.3355,-2.3362,-2.3416,-2.3423,-2.3428,-2.3385,-2.3385,-2.3386,-2.3415,0,-2.3335,-2.3357,-2.335,-2.3372,-2.3381,-2.3368,-2.3378,-2.338,-2.3378,-2.3385,-2.3382,-2.3391,-2.3378,-2.338,-2.3388,-2.3386,-2.3401,-2.3384,-2.3394,-2.3394,-2.3393,-2.3433,-2.3441,-2.3468,-2.3419,-2.342,-2.342,0,-2.3375,-2.338,-2.3402,-2.3401,-2.3405,-2.3415,-2.3419,-2.3426,-2.3428,-2.3426,-2.3429,-2.3421,-2.3433,-2.3417,-2.3433,-2.3421,-2.3425,-2.3424,-2.3425,-2.3426,-2.3409,-2.3434,-2.3477,-2.3481,-2.3426,-2.3426,-2.3425,0,-2.3406,-2.3418,-2.3432,-2.3434,-2.3434,-2.3441,-2.3441,-2.3442,-2.3446,-2.345,-2.3452,-2.3458,-2.3461,-2.3465,-2.3459,-2.3449,-2.3476,-2.346,-2.3474,-2.3474,-2.348,-2.348,-2.3524,-2.3483,-2.3482,-2.3482,-2.3482,0,-2.3441,-2.3455,-2.3446,-2.3455,-2.347,-2.3462,-2.3477,-2.3476,-2.3476,-2.3485,-2.3474,-2.3482,-2.3473,-2.348,-2.3475,-2.3489,-2.349,-2.3488,-2.3487,-2.3489,-2.349,-2.3492,-2.3489,-2.3483,-2.3483,-2.3483,-2.3483,0,-2.3478,-2.3473,-2.3488,-2.3486,-2.3486,-2.3497,-2.3495,-2.3503,-2.35,-2.3511,-2.3512,-2.3507,-2.3515,-2.3509,-2.3516,-2.3513,-2.3531,-2.3527,-2.353,-2.3529,-2.3543,-2.3542,-2.359,-2.3596,-2.3551,-2.3552,-2.3552,0,-2.3501,-2.3512,-2.3511,-2.3515,-2.3516,-2.3524,-2.3528,-2.352,-2.3524,-2.3526,-2.3534,-2.3541,-2.3546,-2.3558,-2.3555,-2.3561,-2.3556,-2.3573,-2.3557,-2.3559,-2.3556,-2.3556,-2.3557,-2.3576,-2.3577,-2.3577,-2.3578,0,-2.3542,-2.3539,-2.3545,-2.355,-2.3555,-2.3559,-2.3561,-2.3566,-2.3557,-2.3563,-2.357,-2.3574,-2.3582,-2.3588,-2.3593,-2.3592,-2.3584,-2.3582,-2.3586,-2.3588,-2.359,-2.3589,-2.3539,-2.3581,-2.3581,-2.3581,-2.3581,-2.358,-2.3573,-2.3581,-2.3582,-2.3589,-2.359,-2.3592,-2.36,-2.3597,-2.3603,-2.3608,-2.3603,-2.3612,-2.3613,-2.3618,-2.3618,-2.3625,-2.3618,-2.3623,-2.3625,-2.3626,-2.3628,-2.3589,-2.3626,-2.3626,-2.3626,-2.3626,-2.3626,0,-2.3613,-2.3613,-2.3619,-2.3623,-2.3628,-2.3619,-2.3621,-2.3626,-2.3634,-2.3636,-2.3641,-2.3649,-2.3655,-2.3652,-2.3657,-2.3663,-2.3659,-2.3665,-2.3665,-2.3665,-2.3634,-2.363,-2.3668,-2.3668,-2.3668,-2.3668,-2.3668,-2.3668,-2.3635,-2.3648,-2.3645,-2.3659,-2.3658,-2.3666,-2.3668,-2.3671,-2.3671,-2.3681,-2.3686,-2.3684,-2.3684,-2.3689,-2.3694,-2.3693,-2.3695,-2.3702,-2.37,-2.3671,-2.3667,-2.3663,-2.3659,-2.3703,-2.3703,-2.373,-2.373,-2.373]}]]